Regional Weather Roundup
Issued by NWS Green Bay, WI

Home | Current Version | Previous Version | Graphics & Text | Print | Product List | Glossary Off
Versions: 1 2 3 4 5 6 7 8 9 10 11 12 13 14 15 16 17 18 19 20 21 22 23 24 25 26 27 28 29 30 31 32 33 34 35 36 37 38 39 40 41 42 43 44 45 46 47 48 49 50

000
ASUS43 KGRB 261311
RWRGRB

NORTH-CENTRAL AND NORTHEAST WISCONSIN REGIONAL WEATHER ROUNDUP
NATIONAL WEATHER SERVICE GREEN BAY WI
800 AM CDT WED APR 26 2017

WIZ005-009-010>012-018-019-261400-
NORTH CENTRAL WISCONSIN

CITY           SKY/WX    TMP DP  RH WIND       PRES   REMARKS
IRONWOOD       MIX PCPN  32  32 100 NE6       29.55F
MANITOWISH WTR DRIZZLE   34  34 100 N8        29.48F
ARBOR VITAE    CLOUDY    39  38  94 NE5       29.46F
EAGLE RIVER    CLOUDY    41  41 100 NE9       29.47F
LAND O LAKES   LGT RAIN  37  37 100 NE7       29.50F
RHINELANDER    CLOUDY    48  47  96 NE6       29.45F
PHILLIPS       DRIZZLE   36  36 100 N10       29.46S
ANTIGO         DRIZZLE   49  49 100 E10       29.44F
TOMAHAWK       CLOUDY    46  45  97 CALM      29.44F FOG
MERRILL        LGT RAIN  52  52 100 E6        29.43F
$$

WIZ013-073-261400-
NORTHEAST WISCONSIN

CITY           SKY/WX    TMP DP  RH WIND       PRES   REMARKS
IRON MOUNTAIN  CLOUDY    49  46  90 NE7       29.48F
MARINETTE      CLOUDY    48  46  93 E9        29.49S
OCONTO         CLOUDY    50  48  93 E5        29.45F
$$

WIZ017-030-035>037-045-261400-
CENTRAL WISCONSIN

CITY           SKY/WX    TMP DP  RH WIND       PRES   REMARKS
MEDFORD        LGT RAIN  47  47  97 NE7       29.41S
WAUSAU         LGT RAIN  53  52  96 SE6       29.41S FOG
MOSINEE        RAIN      52  52 100 E9        29.40F
MARSHFIELD     LGT RAIN  55  53  93 E7        29.37F FOG
WISC RAPIDS    CLOUDY    56  56 100 SE5       29.39F FOG
STEVENS POINT  CLOUDY    53  53 100 NE7       29.40F FOG
WAUPACA        CLOUDY    59  56  90 CALM      29.41S
SHAWANO        CLOUDY    53  50  92 NE8       29.44F
CLINTONVILLE   CLOUDY    52  52 100 NE7       29.42F
WAUTOMA        LGT RAIN  57  56  96 MISG        N/A
$$

WIZ038-039-048-051-261400-
FOX VALLEY

CITY           SKY/WX    TMP DP  RH WIND       PRES   REMARKS
NWS GREEN BAY  MOSUNNY   59  55  87 SE8       29.42F
APPLETON       PTSUNNY   59  52  77 SE8       29.40F
OSHKOSH        CLOUDY    63  54  72 SE12      29.40F
FOND DU LAC    CLOUDY    63  53  70 SE14      29.41F
$$

WIZ022-050-052-261400-
EAST CENTRAL WISCONSIN

CITY           SKY/WX    TMP DP  RH WIND       PRES   REMARKS
EPHRAIM        FAIR      57  54  88 S13       29.48S
WASHINGTON ISL FAIR      47  45  94 CALM      29.49F
STURGEON BAY   MOSUNNY   59  53  80 S12       29.47F
MANITOWOC      CLOUDY    53  48  83 S15       29.47F
SHEBOYGAN      MOSUNNY   55  51  86 S10       29.46S
$$

LMZ563-521-522-541>543-261400-
LAKESHORE

STATION/POSITION TIME  TEMP    WIND        PRES    VSBY  WAVE
                       AIR SEA DIR/SP/G                  HT/PER
                 (UTC) (F)     (DEG/KT/KT) (MB)    (MI)  (FT/S)
SHEBOYGAN LKSHOR 1200   47     170/ 11/ 13  997.8F
KEWAUNEE LKSHORE 1248   51     180/ 12/ 14  997.9F
NORTHPORT PIER   1240   45     120/  3/  5  999.0F
N MID LAKE BUOY  1150   42 37  110/ 12/ 14 1000.6          2/ 3
CHAMBERS ISLAND  1240   41      10/  6/  7  998.6F
MENOMINEE LKSHOR 1248   44      30/ 13/ 16  997.9R
$$




USA.gov is the U.S. government's official web portal to all federal, state and local government web resources and services.